sat.trackr.live / text

‹ back to catalog

PRAETORIAN SDA_605

NORAD 65568 · 2025-203D

PAYLOAD ACTIVE UNKNOWN

§ Identity

Operator
Country
US
Launch date
2025-09-10
Launch site
AFWTR
Launch vehicle
Mass (kg)
RCS (m²)

Purposes: military

External: N2YO · Heavens-Above · Gunter

§ Orbital elements

Epoch: 2026-09-20T00:14:53.956608Z

Period
104.11 min
Inclination
81.2983°
Eccentricity
0.0007245
Mean motion
13.83134253 rev/d
Perigee alt
947.5 km
Apogee alt
958.1 km
Semi-major
7,330.9 km
B*
4.1058e-5
RAAN
283.0800°
Arg perigee
299.2964°
Mean anomaly
60.7468°
Rev number
5,180

§ Raw data

PRAETORIAN SDA_6051 65568U 25203D   26263.01034672  .00000057  00000+0  41058-4 0  99972 65568  81.2983 283.0800 0007245 299.2964  60.7468 13.83134253 51801

JSON: /api/v1/satellites/65568 · /tle

For live sub-satellite position, see the globe view (requires WebGL).

§ Visibility from observer

Set your observer location to see the next 7 days of passes ≥ 10°. The values pass through the URL so the page stays shareable.

No JS? Fill the form by hand. The geolocation button needs JavaScript.